Rutland, VT

4:09 PM EST on February 24, 2018 (GMT -0500)
Rutland State

Weather History for KRUT - November, 2013

Change the Weather History Date:

Saturday, November 23, 2013

  Actual Average Record
Temperature  
Mean Temperature 35 °F -  
Max Temperature 45 °F - 69 °F (1979)
Min Temperature 25 °F - 8 °F (2008)
Degree Days  
Heating Degree Days 30    
Month to date heating degree days 605  
Since 1 July heating degree days 1418  
Cooling Degree Days 0    
Month to date cooling degree days 0  
Year to date cooling degree days 449  
Moisture  
Dew Point 19 °F    
Average Humidity 59    
Maximum Humidity 76    
Minimum Humidity 41    
Precipitation  
Precipitation 0.00 in - 1.47 in (1992)
Month to date precipitation 1.61  
Year to date precipitation 22.74  
Sea Level Pressure  
Sea Level Pressure 29.86 in    
Wind  
Wind Speed 11 mph (West)    
Max Wind Speed 21 mph    
Max Gust Speed 30 mph    
Visibility 10 miles    
Events      
T = Trace of Precipitation, MM = Missing Value Source: NWS Daily Summary

Daily Weather History Graph

Daily Weather History Graph

Search for Another Location

Airport or City:

Trip Planner

Search our weather history database for the weather conditions in past years. The results will help you decide how hot, cold, wet, or windy it might be!

Date:

Astronomy

Nov. 23, 2013 Rise Set
Actual Time 6:55 AM EST 4:20 PM EST
Civil Twilight 6:24 AM EST 4:51 PM EST
Nautical Twilight 5:49 AM EST 5:27 PM EST
Astronomical Twilight 5:14 AM EST 6:01 PM EST
Moon 9:50 PM EST (11/23) 11:07 AM EST (11/23)
Length of Visible Light 10h 27m
Length of Day
9h 24m
Waning Gibbous, 70% of the Moon is Illuminated
Nov 23
Waning Gibbous
Nov 25
Last Quarter
Dec 2
New
Dec 9
First Quarter
Dec 17
Full

Hourly Weather History & Observations

Time (EST) Temp. Windchill Dew Point Humidity Pressure Visibility Wind Dir Wind Speed Gust Speed Precip Events Conditions
12:15 AM 44.6 °F 38.1 °F 37.4 °F 76% 29.82 in 10.0 mi West 13.8 mph 20.7 mph N/A   Mostly Cloudy
12:35 AM 44.6 °F 37.8 °F 35.6 °F 71% 29.83 in 10.0 mi West 15.0 mph 24.2 mph N/A   Overcast
12:55 AM 42.8 °F 34.8 °F 35.6 °F 76% 29.83 in 9.0 mi West 17.3 mph 27.6 mph N/A   Mostly Cloudy
1:15 AM 42.8 °F 36.6 °F 32.0 °F 66% 29.84 in 10.0 mi West 11.5 mph 24.2 mph N/A   Scattered Clouds
1:35 AM 42.8 °F 37.5 °F 33.8 °F 70% 29.85 in 10.0 mi West 9.2 mph 23.0 mph N/A   Mostly Cloudy
1:55 AM 41.0 °F 34.7 °F 32.0 °F 70% 29.86 in 10.0 mi WNW 10.4 mph 19.6 mph N/A   Mostly Cloudy
2:15 AM 39.2 °F 34.2 °F 30.2 °F 70% 29.87 in 10.0 mi WNW 6.9 mph - N/A   Scattered Clouds
2:35 AM 37.4 °F 32.1 °F 28.4 °F 70% 29.88 in 10.0 mi NW 6.9 mph 16.1 mph N/A   Partly Cloudy
2:55 AM 37.4 °F 30.8 °F 28.4 °F 70% 29.88 in 10.0 mi West 9.2 mph 20.7 mph N/A   Scattered Clouds
3:15 AM 37.4 °F 29.3 °F 26.6 °F 65% 29.88 in 10.0 mi West 12.7 mph 18.4 mph N/A   Mostly Cloudy
3:35 AM 35.6 °F 27.1 °F 24.8 °F 65% 29.88 in 10.0 mi West 12.7 mph 16.1 mph N/A   Overcast
3:55 AM 35.6 °F 29.9 °F 24.8 °F 65% 29.89 in 10.0 mi West 6.9 mph 18.4 mph N/A   Overcast
4:15 AM 35.6 °F 29.9 °F 24.8 °F 65% 29.90 in 10.0 mi West 6.9 mph - N/A   Overcast
4:35 AM 33.8 °F 26.4 °F 24.8 °F 70% 29.91 in 10.0 mi West 9.2 mph 16.1 mph N/A   Overcast
4:55 AM 33.8 °F 26.4 °F 23.0 °F 65% 29.92 in 10.0 mi West 9.2 mph - N/A   Overcast
5:15 AM 33.8 °F 25.8 °F 21.2 °F 60% 29.92 in 10.0 mi West 10.4 mph 20.7 mph N/A   Overcast
5:35 AM 33.8 °F 27.7 °F 23.0 °F 65% 29.93 in 10.0 mi West 6.9 mph 17.3 mph N/A   Overcast
5:55 AM 32.0 °F 22.5 °F 19.4 °F 60% 29.93 in 10.0 mi West 12.7 mph 19.6 mph N/A   Overcast
6:15 AM 30.2 °F 21.3 °F 21.2 °F 69% 29.94 in 10.0 mi West 10.4 mph 16.1 mph N/A   Overcast
6:35 AM 30.2 °F 21.9 °F 17.6 °F 60% 29.94 in 10.0 mi West 9.2 mph - N/A   Overcast
6:55 AM 30.2 °F 21.3 °F 19.4 °F 64% 29.94 in 10.0 mi West 10.4 mph - N/A   Overcast
7:15 AM 30.2 °F 20.8 °F 19.4 °F 64% 29.94 in 10.0 mi West 11.5 mph 16.1 mph N/A   Overcast
7:35 AM 30.2 °F 21.9 °F 17.6 °F 60% 29.95 in 10.0 mi West 9.2 mph 16.1 mph N/A   Overcast
7:55 AM 30.2 °F 22.6 °F 19.4 °F 64% 29.96 in 10.0 mi WNW 8.1 mph 17.3 mph N/A   Overcast
8:15 AM 30.2 °F 21.9 °F 17.6 °F 60% 29.96 in 10.0 mi WNW 9.2 mph - N/A   Overcast
8:35 AM 30.2 °F 21.3 °F 17.6 °F 60% 29.96 in 10.0 mi West 10.4 mph - N/A   Overcast
8:55 AM 30.2 °F 24.3 °F 19.4 °F 64% 29.96 in 10.0 mi West 5.8 mph - N/A   Overcast
9:15 AM 30.2 °F 23.4 °F 19.4 °F 64% 29.97 in 10.0 mi West 6.9 mph - N/A   Overcast
9:35 AM 30.2 °F 21.9 °F 17.6 °F 60% 29.96 in 10.0 mi West 9.2 mph - N/A   Overcast
9:55 AM 30.2 °F 20.8 °F 15.8 °F 55% 29.96 in 10.0 mi West 11.5 mph 17.3 mph N/A   Scattered Clouds
10:15 AM 30.2 °F 19.3 °F 15.8 °F 55% 29.95 in 10.0 mi WNW 15.0 mph 21.9 mph N/A   Clear
10:35 AM 32.0 °F 25.6 °F 17.6 °F 55% 29.95 in 10.0 mi WNW 6.9 mph - N/A   Mostly Cloudy
10:55 AM 32.0 °F 22.5 °F 17.6 °F 55% 29.93 in 10.0 mi WNW 12.7 mph 16.1 mph N/A   Mostly Cloudy
11:15 AM 33.8 °F 25.3 °F 15.8 °F 48% 29.92 in 10.0 mi West 11.5 mph 20.7 mph N/A   Scattered Clouds
11:35 AM 33.8 °F 23.9 °F 17.6 °F 52% 29.91 in 10.0 mi WSW 15.0 mph 19.6 mph N/A   Mostly Cloudy
11:55 AM 33.8 °F 27.0 °F 17.6 °F 52% 29.90 in 10.0 mi West 8.1 mph - N/A   Mostly Cloudy
12:15 PM 33.8 °F 25.8 °F 19.4 °F 56% 29.88 in 10.0 mi West 10.4 mph 16.1 mph N/A   Overcast
12:35 PM 33.8 °F 28.6 °F 15.8 °F 48% 29.87 in 10.0 mi West 5.8 mph 17.3 mph N/A   Mostly Cloudy
12:55 PM 33.8 °F 28.6 °F 15.8 °F 48% 29.86 in 10.0 mi WNW 5.8 mph - N/A   Mostly Cloudy
1:15 PM 33.8 °F 30.8 °F 17.6 °F 52% 29.84 in 10.0 mi NNW 3.5 mph - N/A   Overcast
1:35 PM 35.6 °F 28.6 °F 15.8 °F 44% 29.83 in 10.0 mi WSW 9.2 mph 17.3 mph N/A   Overcast
1:55 PM 33.8 °F 27.0 °F 17.6 °F 52% 29.82 in 10.0 mi West 8.1 mph - N/A   Overcast
2:15 PM 33.8 °F 25.8 °F 15.8 °F 48% 29.80 in 10.0 mi West 10.4 mph 16.1 mph N/A   Overcast
2:35 PM 33.8 °F 29.6 °F 17.6 °F 52% 29.80 in 10.0 mi WSW 4.6 mph - N/A   Overcast
2:55 PM 33.8 °F 25.8 °F 15.8 °F 48% 29.79 in 10.0 mi West 10.4 mph 17.3 mph N/A   Overcast
3:15 PM 35.6 °F 26.2 °F 15.8 °F 44% 29.78 in 10.0 mi WSW 15.0 mph 20.7 mph N/A   Overcast
3:35 PM 33.8 °F 23.2 °F 12.2 °F 41% 29.78 in 10.0 mi West 17.3 mph 23.0 mph N/A   Overcast
3:55 PM 33.8 °F 27.0 °F 12.2 °F 41% 29.78 in 10.0 mi WSW 8.1 mph - N/A   Overcast
4:15 PM 33.8 °F 23.2 °F 12.2 °F 41% 29.77 in 10.0 mi WSW 17.3 mph 21.9 mph N/A   Overcast
4:35 PM 33.8 °F 23.5 °F 14.0 °F 44% 29.76 in 10.0 mi WSW 16.1 mph 23.0 mph N/A   Overcast
4:55 PM 33.8 °F 22.8 °F 14.0 °F 44% 29.76 in 10.0 mi West 18.4 mph 24.2 mph N/A   Mostly Cloudy
5:15 PM 30.2 °F 20.2 °F 24.8 °F 80% 29.78 in 2.5 mi West 12.7 mph 23.0 mph N/A   Overcast
5:35 PM 30.2 °F 20.8 °F 21.2 °F 69% 29.78 in 10.0 mi WNW 11.5 mph 24.2 mph N/A   Mostly Cloudy
5:55 PM 28.4 °F 18.5 °F 21.2 °F 74% 29.78 in 10.0 mi West 11.5 mph 17.3 mph N/A   Mostly Cloudy
6:15 PM 28.4 °F 21.2 °F 21.2 °F 74% 29.78 in 10.0 mi West 6.9 mph - N/A   Mostly Cloudy
6:35 PM 30.2 °F 20.8 °F 19.4 °F 64% 29.78 in 10.0 mi West 11.5 mph 18.4 mph N/A   Overcast
6:55 PM 30.2 °F 20.2 °F 17.6 °F 60% 29.78 in 10.0 mi West 12.7 mph 19.6 mph N/A   Mostly Cloudy
7:15 PM 28.4 °F 15.8 °F 12.2 °F 51% 29.79 in 10.0 mi WNW 18.4 mph 29.9 mph N/A   Mostly Cloudy
7:35 PM 28.4 °F 15.8 °F 8.6 °F 43% 29.79 in 10.0 mi West 18.4 mph 31.1 mph N/A   Partly Cloudy
7:55 PM 28.4 °F 15.1 °F 8.6 °F 43% 29.79 in 10.0 mi West 20.7 mph 29.9 mph N/A   Scattered Clouds
8:15 PM 26.6 °F 16.8 °F 10.4 °F 51% 29.80 in 10.0 mi West 10.4 mph 27.6 mph N/A   Overcast
8:35 PM 26.6 °F 14.3 °F 10.4 °F 51% 29.80 in 10.0 mi West 16.1 mph 23.0 mph N/A   Overcast
8:55 PM 26.6 °F 14.7 °F 10.4 °F 51% 29.80 in 10.0 mi West 15.0 mph 25.3 mph N/A   Overcast
9:15 PM 26.6 °F 15.2 °F 12.2 °F 55% 29.80 in 10.0 mi West 13.8 mph 26.5 mph N/A   Mostly Cloudy
9:35 PM 24.8 °F 12.9 °F 15.8 °F 69% 29.81 in 10.0 mi West 13.8 mph 21.9 mph N/A   Overcast
9:55 PM 24.8 °F 16.1 °F 15.8 °F 69% 29.82 in 10.0 mi WNW 8.1 mph - N/A   Mostly Cloudy
10:15 PM 24.8 °F 14.6 °F 15.8 °F 69% 29.81 in 10.0 mi West 10.4 mph - N/A   Overcast
10:35 PM 24.8 °F 14.0 °F 12.2 °F 59% 29.81 in 10.0 mi West 11.5 mph - N/A   Overcast
10:55 PM 24.8 °F 15.3 °F 12.2 °F 59% 29.81 in 10.0 mi West 9.2 mph 20.7 mph N/A   Overcast
11:15 PM 24.8 °F 12.9 °F 10.4 °F 54% 29.81 in 10.0 mi West 13.8 mph 17.3 mph N/A   Mostly Cloudy
11:35 PM 24.8 °F 15.3 °F 10.4 °F 54% 29.81 in 10.0 mi West 9.2 mph 18.4 mph N/A   Overcast
11:55 PM 23.0 °F 11.7 °F 12.2 °F 63% 29.81 in 10.0 mi West 11.5 mph 19.6 mph N/A   Mostly Cloudy